This is the latest recevied weather packets stored in our database for station/object N5KJT. If no packets are shown the sender has not sent any weather packets the latest 10 day(s).
| Time | Temp. | Humidity | Pressure | Rain* | Wind** | Luminosity | Snow |
|---|---|---|---|---|---|---|---|
| 1787677817 | 28.33° C | 38% | 1028.8 hPa | 0 mm | - | 1011 W/m² | - |
| 1787677517 | 27.78° C | 37% | 1028.9 hPa | 0 mm | - | 970 W/m² | - |
| 1787677217 | 27.78° C | 38% | 1028.9 hPa | 0 mm | - | 918 W/m² | - |
| 1787676917 | 27.78° C | 37% | 1029.1 hPa | 0 mm | - | 856 W/m² | - |
| 1787676617 | 27.78° C | 38% | 1029.1 hPa | 0 mm | - | 801 W/m² | - |
| 1787676317 | 27.78° C | 37% | 1029.2 hPa | 0 mm | - | 758 W/m² | - |
| 1787676017 | 27.78° C | 38% | 1029.2 hPa | 0 mm | - | 724 W/m² | - |
| 1787675717 | 27.78° C | 40% | 1029.3 hPa | 0 mm | - | 650 W/m² | - |
| 1787675417 | 27.78° C | 38% | 1029.3 hPa | 0 mm | - | 550 W/m² | - |
| 1787675117 | 27.78° C | 39% | 1029.2 hPa | 0 mm | - | 584 W/m² | - |
| 1787674817 | 27.78° C | 39% | 1029.2 hPa | 0 mm | - | 595 W/m² | - |
| 1787674517 | 27.78° C | 39% | 1029.2 hPa | 0 mm | - | 671 W/m² | - |
| 1787674217 | 27.78° C | 39% | 1029.2 hPa | 0 mm | - | 678 W/m² | - |
| 1787673917 | 27.22° C | 39% | 1029.3 hPa | 0 mm | - | 681 W/m² | - |
| 1787673617 | 27.22° C | 41% | 1029.4 hPa | 0 mm | - | 689 W/m² | - |
| 1787673317 | 27.22° C | 40% | 1029.4 hPa | 0 mm | - | 694 W/m² | - |
| 1787673017 | 27.22° C | 40% | 1029.3 hPa | 0 mm | - | 695 W/m² | - |
| 1787672717 | 26.67° C | 42% | 1029.3 hPa | 0 mm | - | 693 W/m² | - |
| 1787672417 | 26.67° C | 41% | 1029.2 hPa | 0 mm | - | 690 W/m² | - |
| 1787672117 | 26.67° C | 41% | 1029.2 hPa | 0 mm | - | 681 W/m² | - |
| 1787671817 | 26.11° C | 42% | 1029.2 hPa | 0 mm | - | 668 W/m² | - |
| 1787671517 | 26.11° C | 44% | 1029.1 hPa | 0 mm | - | 654 W/m² | - |
| 1787671217 | 25.56° C | 43% | 1029.1 hPa | 0 mm | - | 627 W/m² | - |
| 1787670917 | 25.56° C | 44% | 1029.1 hPa | 0 mm | - | 529 W/m² | - |
| 1787670617 | 25° C | 44% | 1029 hPa | 0 mm | - | 461 W/m² | - |
* Rain latest hour (hover to see other rain measurements)
** Current wind speed in m/s (hover to see current wind gust speed)